White Rock, British Columbia

9:14 PM PDT on August 18, 2017 (GMT -0700)
White Rock

Weather History for CWWK - October, 2012

Change the Weather History Date:

Saturday, October 6, 2012

  Actual Average Record
Temperature  
Mean Temperature 56 °F -  
Max Temperature 72 °F - - ()
Min Temperature 41 °F - - ()
Degree Days  
Heating Degree Days 8    
Growing Degree Days 6 (Base 50)    
Moisture  
Dew Point 42 °F    
Average Humidity 63    
Maximum Humidity 84    
Minimum Humidity 18    
Precipitation  
Precipitation 0.00 in - - ()
Sea Level Pressure  
Sea Level Pressure 30.24 in    
Wind  
Wind Speed 1 mph ()    
Max Wind Speed 5 mph    
Max Gust Speed -    
T = Trace of Precipitation, MM = Missing Value Source: Averaged Metar Reports

Daily Weather History Graph

Daily Weather History Graph

Search for Another Location

Airport or City:

Trip Planner

Search our weather history database for the weather conditions in past years. The results will help you decide how hot, cold, wet, or windy it might be!

Date:

Astronomy

Oct. 06, 2012 Rise Set
Actual Time 7:19 AM PDT 6:38 PM PDT
Civil Twilight 6:47 AM PDT 7:09 PM PDT
Nautical Twilight 6:10 AM PDT 7:46 PM PDT
Astronomical Twilight 5:33 AM PDT 8:23 PM PDT
Moon 10:35 PM PDT (10/6) 1:41 PM PDT (10/6)
Length of Visible Light 12h 22m
Length of Day
11h 19m
Waning Gibbous, 64% of the Moon is Illuminated
Oct 6
Waning Gibbous
Oct 8
Last Quarter
Oct 15
New
Oct 21
First Quarter
Oct 29
Full

Hourly Weather History & Observations

Time (PDT) Temp. Dew Point Humidity Pressure Visibility Wind Dir Wind Speed Gust Speed Precip Events Conditions
12:00 AM 50.7 °F 38.1 °F 62% 30.27 in - NE 2.3 mph - N/A   Unknown
1:00 AM 48.0 °F 39.4 °F 72% 30.28 in - North 1.2 mph - N/A   Unknown
2:00 AM 45.7 °F 38.7 °F 76% 30.29 in - Calm Calm - N/A   Unknown
3:00 AM 44.8 °F 38.3 °F 78% 30.28 in - Calm Calm - N/A   Unknown
4:00 AM 44.8 °F 38.7 °F 79% 30.28 in - ENE 1.2 mph - N/A   Unknown
5:00 AM 44 °F 38 °F 71% 30.28 in - Calm Calm - -  
6:00 AM 43.5 °F 37.6 °F 80% 30.28 in - NNE 1.2 mph - N/A   Unknown
7:00 AM 43.0 °F 37.0 °F 80% 30.29 in - ESE 1.2 mph - N/A   Unknown
8:00 AM 44.2 °F 38.5 °F 80% 30.29 in - NE 2.3 mph - N/A   Unknown
9:00 AM 48.7 °F 40.6 °F 74% 30.29 in - SE 1.2 mph - N/A   Unknown
10:00 AM 56.3 °F 42.4 °F 60% 30.30 in - SSW 2.3 mph - N/A   Unknown
11:00 AM 57 °F 45 °F 53% 30.28 in - SW 2.3 mph - -  
11:00 AM 57.2 °F 44.6 °F 63% 30.28 in - SW 2.3 mph - N/A   Unknown
12:00 PM 62.4 °F 39.4 °F 43% 30.28 in - West 3.5 mph - N/A   Unknown
1:00 PM 63.9 °F 48.7 °F 58% 30.26 in - SW 3.5 mph - N/A   Unknown
2:00 PM 66.7 °F 43.5 °F 43% 30.23 in - West 4.6 mph - N/A   Unknown
3:00 PM 67.1 °F 46.4 °F 47% 30.22 in - WSW 3.5 mph - N/A   Unknown
4:00 PM 70.5 °F 42.1 °F 36% 30.20 in - WSW 2.3 mph - N/A   Unknown
5:00 PM 71 °F 37 °F 18% 30.18 in - West 2.3 mph - -  
5:00 PM 70.9 °F 37.2 °F 29% 30.18 in - West 2.3 mph - N/A   Unknown
6:00 PM 66.4 °F 42.8 °F 42% 30.17 in - Calm Calm - N/A   Unknown
7:00 PM 58.6 °F 46.9 °F 65% 30.17 in - ESE 1.2 mph - N/A   Unknown
8:00 PM 54.7 °F 45.3 °F 71% 30.17 in - ENE 1.2 mph - N/A   Unknown
9:00 PM 52.3 °F 46.4 °F 80% 30.16 in - Calm Calm - N/A   Unknown
10:00 PM 51.3 °F 46.2 °F 83% 30.16 in - Calm Calm - N/A   Unknown
11:00 PM 49 °F 45 °F 81% 30.16 in - Calm Calm - -  
11:00 PM 49.5 °F 45.0 °F 84% 30.16 in - Calm Calm - N/A   Unknown